Location: Elbart
(49.6135°N, 11.9134°E)
Time: 01:56:07
(UTC+00:00)

SL-16 R/B - Pass Details

Date: 09 April 2020
Orbit: 842 x 846 km, 71.0° (Epoch: 03 June)

Event Time Altitude Azimuth Distance (km) Brightness Sun altitude
Rises 23:13:09 0° 325° (NW) 3,415 6.1 -32.4°
Reaches altitude 10° 23:15:46 10° 317° (NW) 2,476 5.1 -32.4°
Enters shadow 23:18:51 27° 293° (WNW) 1,563 3.7 -32.3°
